Time,TemperatureF,DewpointF,PressureIn,WindDirection,WindDirectionDegrees,WindSpeedMPH,WindSpeedGustMPH,Humidity,HourlyPrecipIn,Conditions,Clouds,dailyrainin,SoftwareType,DateUTC
2013-06-01 00:03:00,56.7,30.0,30.17,NNW,327,7.6,7.6,36,0.00,CLR,SCT,0.00,WeatherDisplay:10.37,2013-06-01 07:03:00,
2013-06-01 00:08:00,56.5,30.5,30.17,NNW,332,5.8,5.8,37,0.00,CLR,SCT,0.00,WeatherDisplay:10.37,2013-06-01 07:08:00,
2013-06-01 00:13:00,56.3,30.3,30.17,NNW,327,5.8,5.8,37,0.00,CLR,SCT,0.00,WeatherDisplay:10.37,2013-06-01 07:13:00,
2013-06-01 00:19:00,55.9,30.0,30.17,North,0,5.8,5.8,37,0.00,CLR,SCT,0.00,WeatherDisplay:10.37,2013-06-01 07:19:00,
2013-06-01 00:24:00,55.9,30.0,30.17,NW,324,5.8,5.8,37,0.00,CLR,SCT,0.00,WeatherDisplay:10.37,2013-06-01 07:24:00,
2013-06-01 00:29:00,55.6,29.7,30.17,NW,321,3.5,3.5,37,0.00,CLR,SCT,0.00,WeatherDisplay:10.37,2013-06-01 07:29:00,
2013-06-01 00:34:00,55.4,30.2,30.17,NW,326,4.6,4.6,38,0.00,CLR,SCT,0.00,WeatherDisplay:10.37,2013-06-01 07:34:00,
2013-06-01 00:39:00,55.0,29.9,30.17,WNW,288,3.5,3.5,38,0.00,CLR,SCT,0.00,WeatherDisplay:10.37,2013-06-01 07:39:00,
2013-06-01 00:44:00,54.7,30.2,30.17,WNW,302,3.0,6.0,39,0.00,CLR,SCT,0.00,WeatherDisplay:10.37,2013-06-01 07:44:00,
2013-06-01 00:50:00,54.5,30.0,30.17,WNW,303,0.0,0.0,39,0.00,CLR,SCT,0.00,WeatherDisplay:10.37,2013-06-01 07:50:00,
2013-06-01 00:55:00,54.1,29.7,30.17,WNW,303,3.5,4.0,39,0.00,CLR,SCT,0.00,WeatherDisplay:10.37,2013-06-01 07:55:00,
2013-06-01 01:00:00,53.4,30.3,30.17,WNW,303,3.5,3.5,41,0.00,CLR,SCT,0.00,WeatherDisplay:10.37,2013-06-01 08:00:00,
2013-06-01 01:05:00,53.2,30.1,30.17,WNW,303,3.5,3.5,41,0.00,CLR,SCT,0.00,WeatherDisplay:10.37,2013-06-01 08:05:00,
2013-06-01 01:11:00,52.9,30.4,30.17,WNW,303,2.7,0.0,42,0.00,CLR,SCT,0.00,WeatherDisplay:10.37,2013-06-01 08:11:00,
2013-06-01 01:16:00,52.7,30.8,30.17,WNW,303,3.5,3.5,43,0.00,CLR,SCT,0.00,WeatherDisplay:10.37,2013-06-01 08:16:00,
2013-06-01 01:21:00,52.5,31.2,30.17,WNW,303,3.5,3.5,44,0.00,CLR,SCT,0.00,WeatherDisplay:10.37,2013-06-01 08:21:00,
2013-06-01 01:26:00,52.2,30.9,30.17,WNW,303,3.5,3.5,44,0.00,CLR,SCT,0.00,WeatherDisplay:10.37,2013-06-01 08:26:00,
2013-06-01 01:31:00,52.0,31.8,30.17,WNW,303,0.0,0.0,46,0.00,CLR,SCT,0.00,WeatherDisplay:10.37,2013-06-01 08:31:00,
2013-06-01 01:37:00,51.8,30.6,30.17,WNW,303,0.0,0.0,44,0.00,CLR,SCT,0.00,WeatherDisplay:10.37,2013-06-01 08:37:00,
2013-06-01 01:42:00,51.8,30.6,30.17,WNW,303,0.0,0.0,44,0.00,CLR,SCT,0.00,WeatherDisplay:10.37,2013-06-01 08:42:00,
2013-06-01 01:47:00,51.8,30.6,30.17,WNW,303,0.0,0.0,44,0.00,CLR,SCT,0.00,WeatherDisplay:10.37,2013-06-01 08:47:00,
2013-06-01 01:52:00,51.6,30.9,30.17,WNW,303,3.6,0.0,45,0.00,CLR,SCT,0.00,WeatherDisplay:10.37,2013-06-01 08:52:00,
2013-06-01 01:57:00,51.6,31.5,30.17,WNW,303,2.3,0.0,46,0.00,CLR,SCT,0.00,WeatherDisplay:10.37,2013-06-01 08:57:00,
2013-06-01 02:03:00,51.1,31.0,30.17,WNW,303,0.0,0.0,46,0.00,CLR,SCT,0.00,WeatherDisplay:10.37,2013-06-01 09:03:00,
2013-06-01 02:08:00,50.7,30.7,30.17,WNW,303,0.0,0.0,46,0.00,CLR,SCT,0.00,WeatherDisplay:10.37,2013-06-01 09:08:00,
2013-06-01 02:13:00,50.2,30.7,30.17,WNW,303,3.5,3.5,47,0.00,CLR,SCT,0.00,WeatherDisplay:10.37,2013-06-01 09:13:00,
2013-06-01 02:18:00,49.8,30.9,30.17,WNW,303,3.5,3.6,48,0.00,CLR,SCT,0.00,WeatherDisplay:10.37,2013-06-01 09:18:00,
2013-06-01 02:24:00,49.5,30.6,30.17,WNW,303,3.5,3.5,48,0.00,CLR,SCT,0.00,WeatherDisplay:10.37,2013-06-01 09:24:00,
2013-06-01 02:29:00,49.1,30.7,30.17,WNW,302,3.5,3.5,49,0.00,CLR,SCT,0.00,WeatherDisplay:10.37,2013-06-01 09:29:00,
2013-06-01 02:34:00,48.7,30.4,30.17,WNW,302,3.5,3.6,49,0.00,CLR,SCT,0.00,WeatherDisplay:10.37,2013-06-01 09:34:00,
2013-06-01 02:39:00,48.6,30.2,30.17,WNW,302,3.5,3.5,49,0.00,CLR,SCT,0.00,WeatherDisplay:10.37,2013-06-01 09:39:00,
2013-06-01 02:44:00,48.2,29.9,30.17,WNW,302,4.0,4.0,49,0.00,CLR,SCT,0.00,WeatherDisplay:10.37,2013-06-01 09:44:00,
2013-06-01 02:50:00,48.2,30.4,30.17,SSW,211,4.0,4.0,50,0.00,CLR,SCT,0.00,WeatherDisplay:10.37,2013-06-01 09:50:00,
2013-06-01 02:55:00,47.8,30.6,30.17,SW,214,4.6,4.6,51,0.00,CLR,SCT,0.00,WeatherDisplay:10.37,2013-06-01 09:55:00,
2013-06-01 03:00:00,47.7,30.4,30.17,SW,214,2.3,0.0,51,0.00,CLR,SCT,0.00,WeatherDisplay:10.37,2013-06-01 10:00:00,
2013-06-01 03:05:00,47.5,30.2,30.17,SW,214,0.0,0.0,51,0.00,CLR,SCT,0.00,WeatherDisplay:10.37,2013-06-01 10:05:00,
2013-06-01 03:10:00,47.3,30.1,30.17,SW,214,0.0,0.0,51,0.00,CLR,SCT,0.00,WeatherDisplay:10.37,2013-06-01 10:10:00,
2013-06-01 03:16:00,47.3,30.5,30.17,SSW,213,3.5,3.5,52,0.00,CLR,SCT,0.00,WeatherDisplay:10.37,2013-06-01 10:16:00,
2013-06-01 03:21:00,47.1,30.4,30.17,SSW,213,2.3,0.0,52,0.00,CLR,SCT,0.00,WeatherDisplay:10.37,2013-06-01 10:21:00,
2013-06-01 03:26:00,47.1,30.4,30.17,SSW,213,0.0,0.0,52,0.00,CLR,SCT,0.00,WeatherDisplay:10.37,2013-06-01 10:26:00,
2013-06-01 03:31:00,46.9,30.7,30.17,SSW,213,2.3,2.7,53,0.00,CLR,SCT,0.00,WeatherDisplay:10.37,2013-06-01 10:31:00,
2013-06-01 03:36:00,46.6,31.3,30.17,SW,214,3.5,4.0,55,0.00,CLR,SCT,0.00,WeatherDisplay:10.37,2013-06-01 10:36:00,
2013-06-01 03:42:00,46.2,31.4,30.17,SW,214,3.5,3.5,56,0.00,CLR,SCT,0.00,WeatherDisplay:10.37,2013-06-01 10:42:00,
2013-06-01 03:47:00,46.0,31.2,30.17,SW,214,2.7,0.0,56,0.00,CLR,SCT,0.00,WeatherDisplay:10.37,2013-06-01 10:47:00,
2013-06-01 03:52:00,45.9,31.5,30.17,SW,214,2.7,2.7,57,0.00,CLR,SCT,0.00,WeatherDisplay:10.37,2013-06-01 10:52:00,
2013-06-01 03:57:00,45.7,30.4,30.17,SSW,213,3.5,3.5,55,0.00,CLR,SCT,0.00,WeatherDisplay:10.37,2013-06-01 10:57:00,
2013-06-01 04:02:00,45.5,31.6,30.17,SSW,213,3.5,3.5,58,0.00,CLR,SCT,0.00,WeatherDisplay:10.37,2013-06-01 11:02:00,
2013-06-01 04:08:00,45.3,31.0,30.17,SW,215,5.8,5.8,57,0.00,CLR,SCT,0.00,WeatherDisplay:10.37,2013-06-01 11:08:00,
2013-06-01 04:13:00,45.3,31.0,30.17,SW,228,5.8,5.8,57,0.00,CLR,SCT,0.00,WeatherDisplay:10.37,2013-06-01 11:13:00,
2013-06-01 04:18:00,45.1,30.8,30.17,SW,217,5.8,5.8,57,0.00,CLR,SCT,0.00,WeatherDisplay:10.37,2013-06-01 11:18:00,
2013-06-01 04:23:00,45.3,31.0,30.17,SSW,206,3.5,3.5,57,0.00,CLR,SCT,0.00,WeatherDisplay:10.37,2013-06-01 11:23:00,
2013-06-01 04:28:00,45.1,30.8,30.17,SW,216,4.6,4.6,57,0.00,CLR,SCT,0.00,WeatherDisplay:10.37,2013-06-01 11:28:00,
2013-06-01 04:34:00,45.1,30.8,30.17,SW,220,5.8,5.8,57,0.00,CLR,SCT,0.00,WeatherDisplay:10.37,2013-06-01 11:34:00,
2013-06-01 04:39:00,44.8,30.5,30.17,SW,229,5.8,5.8,57,0.00,CLR,SCT,0.00,WeatherDisplay:10.37,2013-06-01 11:39:00,
2013-06-01 04:44:00,44.6,30.3,30.17,SW,231,5.8,5.8,57,0.00,CLR,SCT,0.00,WeatherDisplay:10.37,2013-06-01 11:44:00,
2013-06-01 04:49:00,44.6,30.3,30.17,SW,224,3.5,3.6,57,0.00,CLR,SCT,0.00,WeatherDisplay:10.37,2013-06-01 11:49:00,
2013-06-01 04:55:00,44.6,30.7,30.17,SW,224,3.5,3.5,58,0.00,CLR,SCT,0.00,WeatherDisplay:10.37,2013-06-01 11:55:00,
2013-06-01 05:00:00,44.2,30.4,30.17,SW,224,2.3,0.0,58,0.00,CLR,SCT,0.00,WeatherDisplay:10.37,2013-06-01 12:00:00,
2013-06-01 05:05:00,44.1,30.6,30.17,SW,224,0.0,0.0,59,0.00,CLR,SCT,0.00,WeatherDisplay:10.37,2013-06-01 12:05:00,
2013-06-01 05:10:00,43.9,30.5,30.17,SW,224,0.0,0.0,59,0.00,CLR,SCT,0.00,WeatherDisplay:10.37,2013-06-01 12:10:00,
2013-06-01 05:15:00,43.9,30.5,30.17,SW,224,0.0,0.0,59,0.00,CLR,SCT,0.00,WeatherDisplay:10.37,2013-06-01 12:15:00,
2013-06-01 05:20:00,43.7,30.3,30.17,SW,224,0.0,0.0,59,0.00,CLR,SCT,0.00,WeatherDisplay:10.37,2013-06-01 12:20:00,
2013-06-01 05:25:00,43.5,30.1,30.17,SW,224,0.0,0.0,59,0.00,CLR,SCT,0.00,WeatherDisplay:10.37,2013-06-01 12:25:00,
2013-06-01 05:31:00,43.0,30.0,30.17,SW,224,0.0,0.0,60,0.00,CLR,SCT,0.00,WeatherDisplay:10.37,2013-06-01 12:31:00,
2013-06-01 05:36:00,42.4,30.3,30.17,SW,224,0.0,0.0,62,0.00,CLR,SCT,0.00,WeatherDisplay:10.37,2013-06-01 12:36:00,
2013-06-01 05:41:00,42.3,30.2,30.14,SW,224,0.0,0.0,62,0.00,CLR,SCT,0.00,WeatherDisplay:10.37,2013-06-01 12:41:00,
2013-06-01 05:46:00,42.1,30.4,30.14,SW,224,0.0,0.0,63,0.00,CLR,SCT,0.00,WeatherDisplay:10.37,2013-06-01 12:46:00,
2013-06-01 05:52:00,42.1,30.8,30.14,SW,224,0.0,0.0,64,0.00,CLR,SCT,0.00,WeatherDisplay:10.37,2013-06-01 12:52:00,
2013-06-01 05:57:00,41.9,31.4,30.14,SW,224,0.0,0.0,66,0.00,CLR,SCT,0.00,WeatherDisplay:10.37,2013-06-01 12:57:00,
2013-06-01 06:02:00,41.9,31.7,30.14,SW,224,0.0,0.0,67,0.00,CLR,SCT,0.00,WeatherDisplay:10.37,2013-06-01 13:02:00,
2013-06-01 06:07:00,41.7,31.2,30.14,SW,224,0.0,0.0,66,0.00,CLR,SCT,0.00,WeatherDisplay:10.37,2013-06-01 13:07:00,
2013-06-01 06:13:00,41.2,30.7,30.17,SW,224,0.0,0.0,66,0.00,CLR,SCT,0.00,WeatherDisplay:10.37,2013-06-01 13:13:00,
2013-06-01 06:18:00,41.2,31.4,30.17,SW,224,0.0,0.0,68,0.00,CLR,SCT,0.00,WeatherDisplay:10.37,2013-06-01 13:18:00,
2013-06-01 06:23:00,41.0,31.6,30.17,SW,224,0.0,0.0,69,0.00,CLR,SCT,0.00,WeatherDisplay:10.37,2013-06-01 13:23:00,
2013-06-01 06:28:00,40.6,31.3,30.14,SW,224,0.0,0.0,69,0.00,CLR,SCT,0.00,WeatherDisplay:10.37,2013-06-01 13:28:00,
2013-06-01 06:33:00,40.6,31.6,30.14,SW,224,3.5,3.5,70,0.00,CLR,SCT,0.00,WeatherDisplay:10.37,2013-06-01 13:33:00,
2013-06-01 06:39:00,40.8,31.8,30.14,SW,224,2.7,2.7,70,0.00,CLR,SCT,0.00,WeatherDisplay:10.37,2013-06-01 13:39:00,
2013-06-01 06:44:00,41.0,31.6,30.14,SW,224,0.0,0.0,69,0.00,CLR,SCT,0.00,WeatherDisplay:10.37,2013-06-01 13:44:00,
2013-06-01 06:49:00,41.4,31.9,30.14,SW,224,0.0,0.0,69,0.00,CLR,SCT,0.00,WeatherDisplay:10.37,2013-06-01 13:49:00,
2013-06-01 06:54:00,41.5,32.1,30.14,SW,224,0.0,0.0,69,0.00,CLR,SCT,0.00,WeatherDisplay:10.37,2013-06-01 13:54:00,
2013-06-01 06:59:00,41.9,32.5,30.14,SW,224,0.0,0.0,69,0.00,CLR,SCT,0.00,WeatherDisplay:10.37,2013-06-01 13:59:00,
2013-06-01 07:04:00,42.4,32.6,30.14,SW,224,3.5,0.0,68,0.00,CLR,SCT,0.00,WeatherDisplay:10.37,2013-06-01 14:04:00,
2013-06-01 07:10:00,43.2,32.6,30.14,SW,224,3.5,0.0,66,0.00,CLR,SCT,0.00,WeatherDisplay:10.37,2013-06-01 14:10:00,
2013-06-01 07:15:00,43.7,31.5,30.14,SW,223,3.5,3.5,62,0.00,CLR,SCT,0.00,WeatherDisplay:10.37,2013-06-01 14:15:00,
2013-06-01 07:20:00,44.2,31.6,30.14,SW,223,3.5,3.5,61,0.00,CLR,SCT,0.00,WeatherDisplay:10.37,2013-06-01 14:20:00,
2013-06-01 07:25:00,45.0,31.1,30.14,SW,223,3.5,3.5,58,0.00,CLR,SCT,0.00,WeatherDisplay:10.37,2013-06-01 14:25:00,
2013-06-01 07:30:00,45.7,30.4,30.14,SW,221,3.5,0.0,55,0.00,CLR,SCT,0.00,WeatherDisplay:10.37,2013-06-01 14:30:00,
2013-06-01 07:35:00,46.4,30.6,30.14,SE,128,3.5,0.0,54,0.00,CLR,SCT,0.00,WeatherDisplay:10.37,2013-06-01 14:35:00,
2013-06-01 07:40:00,46.9,30.7,30.14,SE,129,3.5,3.5,53,0.00,CLR,SCT,0.00,WeatherDisplay:10.37,2013-06-01 14:40:00,
2013-06-01 07:46:00,47.7,30.4,30.14,SE,125,3.5,3.5,51,0.00,CLR,SCT,0.00,WeatherDisplay:10.37,2013-06-01 14:46:00,
2013-06-01 07:51:00,48.4,30.6,30.14,SE,126,0.0,0.0,50,0.00,CLR,SCT,0.00,WeatherDisplay:10.37,2013-06-01 14:51:00,
2013-06-01 07:56:00,48.7,30.4,30.14,SE,142,0.0,0.0,49,0.00,CLR,SCT,0.00,WeatherDisplay:10.37,2013-06-01 14:56:00,
2013-06-01 08:01:00,49.5,30.6,30.14,SE,142,0.0,0.0,48,0.00,CLR,SCT,0.00,WeatherDisplay:10.37,2013-06-01 15:01:00,
2013-06-01 08:06:00,50.0,30.5,30.14,SE,142,0.0,0.0,47,0.00,CLR,SCT,0.00,WeatherDisplay:10.37,2013-06-01 15:06:00,
2013-06-01 08:11:00,50.5,31.0,30.14,SE,142,0.0,0.0,47,0.00,CLR,SCT,0.00,WeatherDisplay:10.37,2013-06-01 15:11:00,
2013-06-01 08:16:00,51.4,31.3,30.14,SE,142,0.0,0.0,46,0.00,CLR,SCT,0.00,WeatherDisplay:10.37,2013-06-01 15:16:00,
2013-06-01 08:22:00,52.0,31.8,30.14,South,178,0.0,0.0,46,0.00,CLR,SCT,0.00,WeatherDisplay:10.37,2013-06-01 15:22:00,
2013-06-01 08:27:00,52.9,31.5,30.14,South,177,0.0,0.0,44,0.00,CLR,SCT,0.00,WeatherDisplay:10.37,2013-06-01 15:27:00,
2013-06-01 08:32:00,53.6,31.0,30.14,South,177,0.0,0.0,42,0.00,CLR,SCT,0.00,WeatherDisplay:10.37,2013-06-01 15:32:00,
2013-06-01 08:37:00,54.3,31.1,30.14,SE,142,3.5,3.6,41,0.00,CLR,SCT,0.00,WeatherDisplay:10.37,2013-06-01 15:37:00,
2013-06-01 08:42:00,55.0,31.7,30.14,SE,134,4.6,4.6,41,0.00,CLR,SCT,0.00,WeatherDisplay:10.37,2013-06-01 15:42:00,
2013-06-01 08:47:00,55.9,31.9,30.14,ESE,120,4.6,4.6,40,0.00,CLR,SCT,0.00,WeatherDisplay:10.37,2013-06-01 15:47:00,
2013-06-01 08:52:00,56.7,32.0,30.14,SE,131,3.5,3.5,39,0.00,CLR,SCT,0.00,WeatherDisplay:10.37,2013-06-01 15:52:00,
2013-06-01 08:58:00,57.7,32.3,30.14,East,95,2.3,0.0,38,0.00,CLR,SCT,0.00,WeatherDisplay:10.37,2013-06-01 15:58:00,
2013-06-01 09:03:00,58.5,32.9,30.14,SE,128,2.3,0.0,38,0.00,CLR,SCT,0.00,WeatherDisplay:10.37,2013-06-01 16:03:00,
2013-06-01 09:08:00,59.4,33.1,30.14,ESE,111,5.8,5.8,37,0.00,CLR,SCT,0.00,WeatherDisplay:10.37,2013-06-01 16:08:00,
2013-06-01 09:13:00,59.9,33.5,30.14,East,97,3.5,3.6,37,0.00,CLR,SCT,0.00,WeatherDisplay:10.37,2013-06-01 16:13:00,
2013-06-01 09:18:00,60.8,33.7,30.14,SSE,164,5.8,5.8,36,0.00,CLR,SCT,0.00,WeatherDisplay:10.37,2013-06-01 16:18:00,
2013-06-01 09:24:00,61.3,34.1,30.14,ESE,115,5.8,5.8,36,0.00,CLR,SCT,0.00,WeatherDisplay:10.37,2013-06-01 16:24:00,
2013-06-01 09:29:00,62.2,34.2,30.14,SE,125,5.8,5.8,35,0.00,CLR,SCT,0.00,WeatherDisplay:10.37,2013-06-01 16:29:00,
2013-06-01 09:34:00,63.0,34.9,30.14,ENE,69,5.8,5.8,35,0.00,CLR,SCT,0.00,WeatherDisplay:10.37,2013-06-01 16:34:00,
2013-06-01 09:39:00,63.9,35.7,30.14,ESE,108,5.8,5.8,35,0.00,CLR,SCT,0.00,WeatherDisplay:10.37,2013-06-01 16:39:00,
2013-06-01 09:44:00,64.2,36.0,30.14,East,93,2.0,6.0,35,0.00,CLR,SCT,0.00,WeatherDisplay:10.37,2013-06-01 16:44:00,
2013-06-01 09:49:00,64.8,35.7,30.14,East,94,5.8,5.8,34,0.00,CLR,SCT,0.00,WeatherDisplay:10.37,2013-06-01 16:49:00,
2013-06-01 09:55:00,65.7,36.5,30.14,ESE,113,3.5,4.0,34,0.00,CLR,SCT,0.00,WeatherDisplay:10.37,2013-06-01 16:55:00,
2013-06-01 10:00:00,65.8,36.7,30.14,ENE,75,2.3,0.0,34,0.00,CLR,SCT,0.00,WeatherDisplay:10.37,2013-06-01 17:00:00,
2013-06-01 10:05:00,66.6,36.5,30.14,East,101,3.5,3.6,33,0.00,CLR,SCT,0.00,WeatherDisplay:10.37,2013-06-01 17:05:00,
2013-06-01 10:10:00,67.6,37.5,30.14,East,99,4.6,4.6,33,0.00,CLR,SCT,0.00,WeatherDisplay:10.37,2013-06-01 17:10:00,
2013-06-01 10:15:00,68.0,37.8,30.14,East,100,2.3,0.0,33,0.00,CLR,SCT,0.00,WeatherDisplay:10.37,2013-06-01 17:15:00,
2013-06-01 10:21:00,68.4,38.1,30.14,SE,131,2.3,0.0,33,0.00,CLR,SCT,0.00,WeatherDisplay:10.37,2013-06-01 17:21:00,
2013-06-01 10:26:00,68.9,38.6,30.11,SE,141,5.8,5.8,33,0.00,CLR,SCT,0.00,WeatherDisplay:10.37,2013-06-01 17:26:00,
2013-06-01 10:31:00,69.1,38.8,30.11,East,87,5.8,5.8,33,0.00,CLR,SCT,0.00,WeatherDisplay:10.37,2013-06-01 17:31:00,
2013-06-01 10:36:00,69.8,39.4,30.11,ENE,78,0.0,0.0,33,0.00,CLR,SCT,0.00,WeatherDisplay:10.37,2013-06-01 17:36:00,
2013-06-01 10:41:00,70.2,38.9,30.11,East,101,5.8,5.8,32,0.00,CLR,SCT,0.00,WeatherDisplay:10.37,2013-06-01 17:41:00,
2013-06-01 10:47:00,70.5,39.2,30.11,SW,216,5.8,5.8,32,0.00,CLR,SCT,0.00,WeatherDisplay:10.37,2013-06-01 17:47:00,
2013-06-01 10:52:00,71.4,40.0,30.11,ESE,110,3.5,0.0,32,0.00,CLR,SCT,0.00,WeatherDisplay:10.37,2013-06-01 17:52:00,
2013-06-01 10:57:00,72.0,40.5,30.11,East,96,3.5,3.5,32,0.00,CLR,SCT,0.00,WeatherDisplay:10.37,2013-06-01 17:57:00,
2013-06-01 11:02:00,71.8,40.3,30.11,WSW,256,5.8,5.8,32,0.00,CLR,SCT,0.00,WeatherDisplay:10.37,2013-06-01 18:02:00,
2013-06-01 11:07:00,72.9,41.3,30.11,SW,226,5.8,5.8,32,0.00,CLR,SCT,0.00,WeatherDisplay:10.37,2013-06-01 18:07:00,
2013-06-01 11:13:00,72.3,40.8,30.11,South,174,6.3,6.3,32,0.00,CLR,SCT,0.00,WeatherDisplay:10.37,2013-06-01 18:13:00,
2013-06-01 11:18:00,72.9,41.3,30.11,SW,224,3.5,3.5,32,0.00,CLR,SCT,0.00,WeatherDisplay:10.37,2013-06-01 18:18:00,
2013-06-01 11:23:00,72.5,41.0,30.08,SSW,213,9.2,9.2,32,0.00,CLR,SCT,0.00,WeatherDisplay:10.37,2013-06-01 18:23:00,
2013-06-01 11:28:00,72.5,41.0,30.08,South,184,8.1,8.1,32,0.00,CLR,SCT,0.00,WeatherDisplay:10.37,2013-06-01 18:28:00,
2013-06-01 11:34:00,73.4,40.9,30.08,SSE,161,4.6,4.6,31,0.00,CLR,SCT,0.00,WeatherDisplay:10.37,2013-06-01 18:34:00,
2013-06-01 11:39:00,73.9,41.4,30.08,SSW,206,5.4,5.4,31,0.00,CLR,SCT,0.00,WeatherDisplay:10.37,2013-06-01 18:39:00,
2013-06-01 11:44:00,75.0,42.3,30.08,SSE,160,6.3,6.3,31,0.00,CLR,SCT,0.00,WeatherDisplay:10.37,2013-06-01 18:44:00,
2013-06-01 11:49:00,75.4,42.6,30.08,South,185,5.8,5.8,31,0.00,CLR,SCT,0.00,WeatherDisplay:10.37,2013-06-01 18:49:00,
2013-06-01 11:54:00,76.3,43.4,30.08,ESE,111,0.0,0.0,31,0.00,CLR,SCT,0.00,WeatherDisplay:10.37,2013-06-01 18:54:00,
2013-06-01 12:00:00,76.6,43.7,30.08,WSW,255,5.8,5.8,31,0.00,CLR,SCT,0.00,WeatherDisplay:10.37,2013-06-01 19:00:00,
2013-06-01 12:05:00,77.2,44.2,30.08,West,280,5.8,5.8,31,0.00,CLR,SCT,0.00,WeatherDisplay:10.37,2013-06-01 19:05:00,
2013-06-01 12:10:00,77.2,44.2,30.08,SSW,201,0.0,0.0,31,0.00,CLR,SCT,0.00,WeatherDisplay:10.37,2013-06-01 19:10:00,
2013-06-01 12:15:00,77.7,44.7,30.08,NE,36,3.5,3.5,31,0.00,CLR,SCT,0.00,WeatherDisplay:10.37,2013-06-01 19:15:00,
2013-06-01 12:20:00,78.4,45.3,30.08,NW,304,0.0,0.0,31,0.00,CLR,SCT,0.00,WeatherDisplay:10.37,2013-06-01 19:20:00,
2013-06-01 12:26:00,78.6,45.4,30.05,West,275,5.8,5.8,31,0.00,CLR,SCT,0.00,WeatherDisplay:10.37,2013-06-01 19:26:00,
2013-06-01 12:31:00,79.7,45.5,30.05,NE,52,2.3,0.0,30,0.00,CLR,SCT,0.00,WeatherDisplay:10.37,2013-06-01 19:31:00,
2013-06-01 12:36:00,79.5,45.4,30.05,NW,317,9.2,9.2,30,0.00,CLR,SCT,0.00,WeatherDisplay:10.37,2013-06-01 19:36:00,
2013-06-01 12:41:00,80.1,45.8,30.08,NE,48,5.8,5.8,30,0.00,CLR,SCT,0.00,WeatherDisplay:10.37,2013-06-01 19:41:00,
2013-06-01 12:46:00,79.9,45.7,30.08,ESE,112,6.9,6.9,30,0.00,CLR,SCT,0.00,WeatherDisplay:10.37,2013-06-01 19:46:00,
2013-06-01 12:52:00,78.8,44.7,30.08,NW,320,4.6,4.6,30,0.00,CLR,SCT,0.00,WeatherDisplay:10.37,2013-06-01 19:52:00,
2013-06-01 12:57:00,79.9,45.7,30.05,NW,319,8.1,8.1,30,0.00,CLR,SCT,0.00,WeatherDisplay:10.37,2013-06-01 19:57:00,
2013-06-01 13:02:00,80.1,45.8,30.05,NNE,22,5.8,5.8,30,0.00,CLR,SCT,0.00,WeatherDisplay:10.37,2013-06-01 20:02:00,
2013-06-01 13:07:00,80.6,46.3,30.05,WNW,301,9.2,9.2,30,0.00,CLR,SCT,0.00,WeatherDisplay:10.37,2013-06-01 20:07:00,
2013-06-01 13:12:00,81.1,46.8,30.05,NE,51,9.2,9.2,30,0.00,CLR,SCT,0.00,WeatherDisplay:10.37,2013-06-01 20:12:00,
2013-06-01 13:17:00,81.3,46.9,30.05,West,280,9.2,9.2,30,0.00,CLR,SCT,0.00,WeatherDisplay:10.37,2013-06-01 20:17:00,
2013-06-01 13:23:00,81.7,47.2,30.05,NW,320,8.1,8.1,30,0.00,CLR,SCT,0.00,WeatherDisplay:10.37,2013-06-01 20:23:00,
2013-06-01 13:28:00,81.3,46.9,30.05,West,270,11.5,11.5,30,0.00,CLR,SCT,0.00,WeatherDisplay:10.37,2013-06-01 20:28:00,
2013-06-01 13:33:00,80.6,46.3,30.05,NNW,339,9.2,9.2,30,0.00,CLR,SCT,0.00,WeatherDisplay:10.37,2013-06-01 20:33:00,
2013-06-01 13:38:00,80.6,46.3,30.05,NW,311,5.8,5.8,30,0.00,CLR,SCT,0.00,WeatherDisplay:10.37,2013-06-01 20:38:00,
2013-06-01 13:43:00,80.6,46.3,30.05,North,10,9.2,9.2,30,0.00,CLR,SCT,0.00,WeatherDisplay:10.37,2013-06-01 20:43:00,
2013-06-01 13:48:00,81.1,46.8,30.05,NNE,31,5.8,5.8,30,0.00,CLR,SCT,0.00,WeatherDisplay:10.37,2013-06-01 20:48:00,
2013-06-01 13:53:00,81.0,46.6,30.05,NNE,24,5.8,5.8,30,0.00,CLR,SCT,0.00,WeatherDisplay:10.37,2013-06-01 20:53:00,
2013-06-01 13:59:00,81.1,46.8,30.05,SSE,154,3.5,3.5,30,0.00,CLR,SCT,0.00,WeatherDisplay:10.37,2013-06-01 20:59:00,
2013-06-01 14:04:00,81.3,46.9,30.05,North,357,5.8,5.8,30,0.00,CLR,SCT,0.00,WeatherDisplay:10.37,2013-06-01 21:04:00,
2013-06-01 14:09:00,81.5,47.1,30.02,NNE,29,8.1,8.1,30,0.00,CLR,SCT,0.00,WeatherDisplay:10.37,2013-06-01 21:09:00,
2013-06-01 14:14:00,82.0,47.5,30.02,West,275,9.2,9.2,30,0.00,CLR,SCT,0.00,WeatherDisplay:10.37,2013-06-01 21:14:00,
2013-06-01 14:20:00,82.2,47.7,30.02,NW,321,10.4,10.4,30,0.00,CLR,SCT,0.00,WeatherDisplay:10.37,2013-06-01 21:20:00,
2013-06-01 14:25:00,82.0,47.5,30.02,NW,306,5.8,5.8,30,0.00,CLR,SCT,0.00,WeatherDisplay:10.37,2013-06-01 21:25:00,
2013-06-01 14:30:00,82.2,47.7,30.02,NNW,328,4.0,0.0,30,0.00,CLR,SCT,0.00,WeatherDisplay:10.37,2013-06-01 21:30:00,
2013-06-01 14:35:00,82.4,46.9,30.02,NNW,331,5.8,5.8,29,0.00,CLR,SCT,0.00,WeatherDisplay:10.37,2013-06-01 21:35:00,
2013-06-01 14:40:00,82.8,47.3,30.02,North,3,9.2,9.2,29,0.00,CLR,SCT,0.00,WeatherDisplay:10.37,2013-06-01 21:40:00,
2013-06-01 14:45:00,82.6,47.1,30.02,NE,53,5.8,5.8,29,0.00,CLR,SCT,0.00,WeatherDisplay:10.37,2013-06-01 21:45:00,
2013-06-01 14:51:00,83.5,47.9,30.02,NW,321,4.6,4.6,29,0.00,CLR,SCT,0.00,WeatherDisplay:10.37,2013-06-01 21:51:00,
2013-06-01 14:56:00,83.5,47.9,30.02,NW,310,3.5,3.5,29,0.00,CLR,SCT,0.00,WeatherDisplay:10.37,2013-06-01 21:56:00,
2013-06-01 15:01:00,83.1,47.6,30.02,ENE,57,8.1,8.1,29,0.00,CLR,SCT,0.00,WeatherDisplay:10.37,2013-06-01 22:01:00,
2013-06-01 15:06:00,83.1,47.6,30.02,NE,43,10.4,10.4,29,0.00,CLR,SCT,0.00,WeatherDisplay:10.37,2013-06-01 22:06:00,
2013-06-01 15:11:00,83.3,47.7,30.02,NNW,327,5.8,5.8,29,0.00,CLR,SCT,0.00,WeatherDisplay:10.37,2013-06-01 22:11:00,
2013-06-01 15:16:00,83.3,47.7,30.02,WNW,297,11.5,11.5,29,0.00,CLR,SCT,0.00,WeatherDisplay:10.37,2013-06-01 22:16:00,
2013-06-01 15:21:00,82.9,47.4,30.02,South,180,10.4,10.4,29,0.00,CLR,SCT,0.00,WeatherDisplay:10.37,2013-06-01 22:21:00,
2013-06-01 15:26:00,82.9,47.4,30.02,WNW,289,11.5,11.5,29,0.00,CLR,SCT,0.00,WeatherDisplay:10.37,2013-06-01 22:26:00,
2013-06-01 15:32:00,83.1,47.6,30.02,NW,320,5.8,5.8,29,0.00,CLR,SCT,0.00,WeatherDisplay:10.37,2013-06-01 22:32:00,
2013-06-01 15:37:00,82.8,47.3,30.02,North,8,12.7,12.7,29,0.00,CLR,SCT,0.00,WeatherDisplay:10.37,2013-06-01 22:37:00,
2013-06-01 15:42:00,82.8,47.3,29.99,NNE,29,10.4,10.4,29,0.00,CLR,SCT,0.00,WeatherDisplay:10.37,2013-06-01 22:42:00,
2013-06-01 15:47:00,83.3,47.7,29.99,NW,308,8.7,8.7,29,0.00,CLR,SCT,0.00,WeatherDisplay:10.37,2013-06-01 22:47:00,
2013-06-01 15:52:00,82.9,47.4,29.99,North,1,9.2,9.2,29,0.00,CLR,SCT,0.00,WeatherDisplay:10.37,2013-06-01 22:52:00,
2013-06-01 15:57:00,83.5,47.9,29.99,North,10,9.2,9.2,29,0.00,CLR,SCT,0.00,WeatherDisplay:10.37,2013-06-01 22:57:00,
2013-06-01 16:02:00,83.7,48.0,29.99,West,269,5.8,5.8,29,0.00,CLR,SCT,0.00,WeatherDisplay:10.37,2013-06-01 23:02:00,
2013-06-01 16:08:00,84.4,48.6,29.99,NW,317,10.4,10.4,29,0.00,CLR,SCT,0.00,WeatherDisplay:10.37,2013-06-01 23:08:00,
2013-06-01 16:13:00,83.7,48.0,29.99,SW,215,10.4,10.4,29,0.00,CLR,SCT,0.00,WeatherDisplay:10.37,2013-06-01 23:13:00,
2013-06-01 16:18:00,83.5,47.9,29.99,NW,320,3.5,4.5,29,0.00,CLR,SCT,0.00,WeatherDisplay:10.37,2013-06-01 23:18:00,
2013-06-01 16:23:00,83.1,47.6,29.99,NW,307,12.7,12.7,29,0.00,CLR,SCT,0.00,WeatherDisplay:10.37,2013-06-01 23:23:00,
2013-06-01 16:28:00,83.1,47.6,29.99,South,173,15.0,15.0,29,0.00,CLR,SCT,0.00,WeatherDisplay:10.37,2013-06-01 23:28:00,
2013-06-01 16:34:00,82.9,47.4,29.99,South,184,13.8,13.8,29,0.00,CLR,SCT,0.00,WeatherDisplay:10.37,2013-06-01 23:34:00,
2013-06-01 16:39:00,82.6,47.1,29.99,NW,317,11.5,11.5,29,0.00,CLR,SCT,0.00,WeatherDisplay:10.37,2013-06-01 23:39:00,
2013-06-01 16:44:00,82.9,47.4,29.99,NW,306,9.2,9.2,29,0.00,CLR,SCT,0.00,WeatherDisplay:10.37,2013-06-01 23:44:00,
2013-06-01 16:49:00,82.2,47.7,29.99,East,98,11.5,11.5,30,0.00,CLR,SCT,0.00,WeatherDisplay:10.37,2013-06-01 23:49:00,
2013-06-01 16:55:00,82.4,46.9,29.99,NW,308,10.4,10.4,29,0.00,CLR,SCT,0.00,WeatherDisplay:10.37,2013-06-01 23:55:00,
2013-06-01 17:00:00,82.4,46.9,29.99,WNW,284,11.5,11.5,29,0.00,CLR,SCT,0.00,WeatherDisplay:10.37,2013-06-02 00:00:00,
2013-06-01 17:05:00,81.7,47.2,29.99,NW,318,12.7,12.7,30,0.00,CLR,SCT,0.00,WeatherDisplay:10.37,2013-06-02 00:05:00,
2013-06-01 17:10:00,80.6,46.3,29.99,South,190,9.2,9.2,30,0.00,CLR,SCT,0.00,WeatherDisplay:10.37,2013-06-02 00:10:00,
2013-06-01 17:15:00,80.1,45.8,29.99,SW,221,8.1,8.1,30,0.00,CLR,SCT,0.00,WeatherDisplay:10.37,2013-06-02 00:15:00,
2013-06-01 17:20:00,79.9,45.7,29.99,NNE,27,8.1,8.1,30,0.00,CLR,SCT,0.00,WeatherDisplay:10.37,2013-06-02 00:20:00,
2013-06-01 17:25:00,78.6,45.4,29.99,SSW,207,12.7,12.7,31,0.00,CLR,SCT,0.00,WeatherDisplay:10.37,2013-06-02 00:25:00,
2013-06-01 17:31:00,77.5,44.5,29.99,North,357,10.4,10.4,31,0.00,CLR,SCT,0.00,WeatherDisplay:10.37,2013-06-02 00:31:00,
2013-06-01 17:36:00,77.5,44.5,29.99,NNE,19,8.1,8.1,31,0.00,CLR,SCT,0.00,WeatherDisplay:10.37,2013-06-02 00:36:00,
2013-06-01 17:41:00,77.5,44.5,29.99,North,2,12.7,12.7,31,0.00,CLR,SCT,0.00,WeatherDisplay:10.37,2013-06-02 00:41:00,
2013-06-01 17:46:00,77.4,44.4,29.99,SW,222,8.3,8.3,31,0.00,CLR,SCT,0.00,WeatherDisplay:10.37,2013-06-02 00:46:00,
2013-06-01 17:51:00,76.6,43.7,29.99,North,1,11.5,11.5,31,0.00,CLR,SCT,0.00,WeatherDisplay:10.37,2013-06-02 00:51:00,
2013-06-01 17:56:00,75.9,43.1,29.99,SSW,206,8.1,8.1,31,0.00,CLR,SCT,0.00,WeatherDisplay:10.37,2013-06-02 00:56:00,
2013-06-01 18:01:00,75.6,42.8,29.99,NE,56,9.2,9.2,31,0.00,CLR,SCT,0.00,WeatherDisplay:10.37,2013-06-02 01:01:00,
2013-06-01 18:06:00,75.2,42.5,29.99,South,174,8.1,8.1,31,0.00,CLR,SCT,0.00,WeatherDisplay:10.37,2013-06-02 01:06:00,
2013-06-01 18:11:00,75.2,42.5,29.96,North,0,9.2,9.2,31,0.00,CLR,SCT,0.00,WeatherDisplay:10.37,2013-06-02 01:11:00,
2013-06-01 18:16:00,75.2,42.5,29.96,SSW,204,11.5,11.5,31,0.00,CLR,SCT,0.00,WeatherDisplay:10.37,2013-06-02 01:16:00,
2013-06-01 18:21:00,75.6,42.8,29.96,WNW,303,12.7,12.7,31,0.00,CLR,SCT,0.00,WeatherDisplay:10.37,2013-06-02 01:21:00,
2013-06-01 18:26:00,75.4,42.6,29.96,East,85,8.1,8.1,31,0.00,CLR,SCT,0.00,WeatherDisplay:10.37,2013-06-02 01:26:00,
2013-06-01 18:32:00,75.9,43.1,29.96,North,357,9.2,9.2,31,0.00,CLR,SCT,0.00,WeatherDisplay:10.37,2013-06-02 01:32:00,
2013-06-01 18:37:00,76.5,43.6,29.96,North,0,12.7,12.7,31,0.00,CLR,SCT,0.00,WeatherDisplay:10.37,2013-06-02 01:37:00,
2013-06-01 18:42:00,77.2,44.2,29.99,North,0,10.4,10.4,31,0.00,CLR,SCT,0.00,WeatherDisplay:10.37,2013-06-02 01:42:00,
2013-06-01 18:47:00,77.5,44.5,29.99,NE,44,15.0,15.0,31,0.00,CLR,SCT,0.00,WeatherDisplay:10.37,2013-06-02 01:47:00,
2013-06-01 18:52:00,77.2,44.2,29.99,East,83,10.4,10.4,31,0.00,CLR,SCT,0.00,WeatherDisplay:10.37,2013-06-02 01:52:00,
2013-06-01 18:58:00,76.5,43.6,29.96,NW,315,10.5,10.5,31,0.00,CLR,SCT,0.00,WeatherDisplay:10.37,2013-06-02 01:58:00,
2013-06-01 19:03:00,76.3,43.4,29.96,WNW,297,10.4,10.4,31,0.00,CLR,SCT,0.00,WeatherDisplay:10.37,2013-06-02 02:03:00,
2013-06-01 19:08:00,76.1,43.3,29.96,WNW,287,12.7,12.7,31,0.00,CLR,SCT,0.00,WeatherDisplay:10.37,2013-06-02 02:08:00,
2013-06-01 19:13:00,75.6,42.8,29.99,NNW,335,9.2,9.2,31,0.00,CLR,SCT,0.00,WeatherDisplay:10.37,2013-06-02 02:13:00,
2013-06-01 19:18:00,75.0,42.3,29.99,North,2,17.3,17.3,31,0.00,CLR,SCT,0.00,WeatherDisplay:10.37,2013-06-02 02:18:00,
2013-06-01 19:23:00,74.5,41.9,29.99,NNW,343,12.7,12.7,31,0.00,CLR,SCT,0.00,WeatherDisplay:10.37,2013-06-02 02:23:00,
2013-06-01 19:28:00,74.1,41.5,29.99,NNW,346,16.1,16.1,31,0.00,CLR,SCT,0.00,WeatherDisplay:10.37,2013-06-02 02:28:00,
2013-06-01 19:34:00,73.8,41.2,29.99,North,0,11.5,11.5,31,0.00,CLR,SCT,0.00,WeatherDisplay:10.37,2013-06-02 02:34:00,
2013-06-01 19:39:00,73.4,41.7,29.99,North,350,17.9,17.9,32,0.00,CLR,SCT,0.00,WeatherDisplay:10.37,2013-06-02 02:39:00,
2013-06-01 19:44:00,73.0,41.4,29.99,NW,321,12.7,12.7,32,0.00,CLR,SCT,0.00,WeatherDisplay:10.37,2013-06-02 02:44:00,
2013-06-01 19:49:00,72.7,41.1,29.99,NNE,25,15.0,15.0,32,0.00,CLR,SCT,0.00,WeatherDisplay:10.37,2013-06-02 02:49:00,
2013-06-01 19:54:00,72.5,41.0,29.99,North,0,15.0,15.0,32,0.00,CLR,SCT,0.00,WeatherDisplay:10.37,2013-06-02 02:54:00,
2013-06-01 19:59:00,72.3,40.8,29.99,NNE,25,11.5,11.5,32,0.00,CLR,SCT,0.00,WeatherDisplay:10.37,2013-06-02 02:59:00,
2013-06-01 20:04:00,72.0,40.5,29.99,North,357,12.7,12.7,32,0.00,CLR,SCT,0.00,WeatherDisplay:10.37,2013-06-02 03:04:00,
2013-06-01 20:10:00,72.0,40.5,29.99,North,350,12.7,12.7,32,0.00,CLR,SCT,0.00,WeatherDisplay:10.37,2013-06-02 03:10:00,
2013-06-01 20:15:00,71.4,40.0,29.99,NW,308,12.7,12.7,32,0.00,CLR,SCT,0.00,WeatherDisplay:10.37,2013-06-02 03:15:00,
2013-06-01 20:20:00,70.9,39.5,29.99,NNW,343,11.5,11.5,32,0.00,CLR,SCT,0.00,WeatherDisplay:10.37,2013-06-02 03:20:00,
2013-06-01 20:25:00,70.7,39.4,29.99,NNE,15,12.7,12.7,32,0.00,CLR,SCT,0.00,WeatherDisplay:10.37,2013-06-02 03:25:00,
2013-06-01 20:30:00,70.5,39.2,29.99,North,357,10.4,10.4,32,0.00,CLR,SCT,0.00,WeatherDisplay:10.37,2013-06-02 03:30:00,
2013-06-01 20:35:00,70.3,39.9,29.99,North,6,9.2,9.2,33,0.00,CLR,SCT,0.00,WeatherDisplay:10.37,2013-06-02 03:35:00,
2013-06-01 20:40:00,70.0,39.5,29.99,NNW,327,8.1,8.1,33,0.00,CLR,SCT,0.00,WeatherDisplay:10.37,2013-06-02 03:40:00,
2013-06-01 20:46:00,69.8,39.4,29.99,NNW,341,9.2,9.2,33,0.00,CLR,SCT,0.00,WeatherDisplay:10.37,2013-06-02 03:46:00,
2013-06-01 20:51:00,69.6,39.2,29.99,NW,313,11.5,11.5,33,0.00,CLR,SCT,0.00,WeatherDisplay:10.37,2013-06-02 03:51:00,
2013-06-01 20:56:00,69.1,38.8,29.99,NW,307,10.4,10.4,33,0.00,CLR,SCT,0.00,WeatherDisplay:10.37,2013-06-02 03:56:00,
2013-06-01 21:01:00,68.7,38.4,29.99,NW,321,11.5,11.5,33,0.00,CLR,SCT,0.00,WeatherDisplay:10.37,2013-06-02 04:01:00,
2013-06-01 21:03:00,68.5,38.3,29.99,NW,320,8.1,8.1,33,0.00,CLR,SCT,0.00,WeatherDisplay:10.37,2013-06-02 04:03:00,
2013-06-01 21:08:00,68.2,38.0,29.99,NNW,334,12.7,12.7,33,0.00,CLR,SCT,0.00,WeatherDisplay:10.37,2013-06-02 04:08:00,
2013-06-01 21:13:00,67.8,38.4,29.99,NNW,330,9.2,9.2,34,0.00,CLR,SCT,0.00,WeatherDisplay:10.37,2013-06-02 04:13:00,
2013-06-01 21:19:00,67.5,38.1,29.99,NNW,328,5.8,5.8,34,0.00,CLR,SCT,0.00,WeatherDisplay:10.37,2013-06-02 04:19:00,
2013-06-01 21:24:00,67.1,37.8,29.99,WNW,286,8.3,8.3,34,0.00,CLR,SCT,0.00,WeatherDisplay:10.37,2013-06-02 04:24:00,
2013-06-01 21:29:00,66.9,37.6,29.99,NW,321,5.8,5.8,34,0.00,CLR,SCT,0.00,WeatherDisplay:10.37,2013-06-02 04:29:00,
2013-06-01 21:34:00,66.7,37.5,29.99,WNW,289,5.8,5.8,34,0.00,CLR,SCT,0.00,WeatherDisplay:10.37,2013-06-02 04:34:00,
2013-06-01 21:39:00,66.4,37.1,29.99,North,9,12.3,12.3,34,0.00,CLR,SCT,0.00,WeatherDisplay:10.37,2013-06-02 04:39:00,
2013-06-01 21:44:00,66.0,36.8,29.99,WNW,300,7.0,13.0,34,0.00,CLR,SCT,0.00,WeatherDisplay:10.37,2013-06-02 04:44:00,
2013-06-01 21:49:00,65.8,36.7,29.99,NW,326,8.1,8.1,34,0.00,CLR,SCT,0.00,WeatherDisplay:10.37,2013-06-02 04:49:00,
2013-06-01 21:55:00,65.5,37.1,29.99,NW,320,5.8,5.8,35,0.00,CLR,SCT,0.00,WeatherDisplay:10.37,2013-06-02 04:55:00,
2013-06-01 22:00:00,65.1,36.8,29.99,NNE,15,8.1,8.1,35,0.00,CLR,SCT,0.00,WeatherDisplay:10.37,2013-06-02 05:00:00,
2013-06-01 22:05:00,64.8,36.5,29.99,NNW,327,8.3,8.3,35,0.00,CLR,SCT,0.00,WeatherDisplay:10.37,2013-06-02 05:05:00,
2013-06-01 22:10:00,64.2,36.7,29.99,North,0,9.2,9.2,36,0.00,CLR,SCT,0.00,WeatherDisplay:10.37,2013-06-02 05:10:00,
2013-06-01 22:15:00,63.9,37.1,29.99,NNW,337,9.2,9.2,37,0.00,CLR,SCT,0.00,WeatherDisplay:10.37,2013-06-02 05:15:00,
2013-06-01 22:20:00,63.5,36.7,29.99,North,0,10.1,10.1,37,0.00,CLR,SCT,0.00,WeatherDisplay:10.37,2013-06-02 05:20:00,
2013-06-01 22:26:00,63.3,36.6,30.02,NNW,327,11.5,11.5,37,0.00,CLR,SCT,0.00,WeatherDisplay:10.37,2013-06-02 05:26:00,
2013-06-01 22:31:00,63.0,36.3,30.02,NNW,343,8.1,8.1,37,0.00,CLR,SCT,0.00,WeatherDisplay:10.37,2013-06-02 05:31:00,
2013-06-01 22:36:00,62.8,36.1,30.02,NNW,328,8.1,8.1,37,0.00,CLR,SCT,0.00,WeatherDisplay:10.37,2013-06-02 05:36:00,
2013-06-01 22:41:00,62.4,36.5,30.02,NW,311,8.1,8.1,38,0.00,CLR,SCT,0.00,WeatherDisplay:10.37,2013-06-02 05:41:00,
2013-06-01 22:46:00,62.2,36.3,30.02,NNW,332,3.5,3.5,38,0.00,CLR,SCT,0.00,WeatherDisplay:10.37,2013-06-02 05:46:00,
2013-06-01 22:51:00,62.1,36.1,30.02,North,0,3.5,3.5,38,0.00,CLR,SCT,0.00,WeatherDisplay:10.37,2013-06-02 05:51:00,
2013-06-01 22:56:00,61.7,35.8,29.99,NNW,335,5.8,5.8,38,0.00,CLR,SCT,0.00,WeatherDisplay:10.37,2013-06-02 05:56:00,
2013-06-01 23:01:00,61.2,35.3,29.99,North,353,4.6,4.6,38,0.00,CLR,SCT,0.00,WeatherDisplay:10.37,2013-06-02 06:01:00,
2013-06-01 23:06:00,60.8,35.7,29.99,NNE,18,4.6,4.6,39,0.00,CLR,SCT,0.00,WeatherDisplay:10.37,2013-06-02 06:06:00,
2013-06-01 23:12:00,60.4,36.0,30.02,North,0,5.8,5.8,40,0.00,CLR,SCT,0.00,WeatherDisplay:10.37,2013-06-02 06:12:00,
2013-06-01 23:17:00,60.3,35.8,30.02,North,350,5.8,5.8,40,0.00,CLR,SCT,0.00,WeatherDisplay:10.37,2013-06-02 06:17:00,
2013-06-01 23:22:00,60.3,35.8,30.02,NW,320,5.8,5.8,40,0.00,CLR,SCT,0.00,WeatherDisplay:10.37,2013-06-02 06:22:00,
2013-06-01 23:27:00,59.9,35.5,29.99,NW,321,5.8,5.8,40,0.00,CLR,SCT,0.00,WeatherDisplay:10.37,2013-06-02 06:27:00,
2013-06-01 23:32:00,59.5,36.4,29.99,North,0,5.8,5.8,42,0.00,CLR,SCT,0.00,WeatherDisplay:10.37,2013-06-02 06:32:00,
2013-06-01 23:37:00,59.5,36.4,29.99,NNW,344,6.3,6.3,42,0.00,CLR,SCT,0.00,WeatherDisplay:10.37,2013-06-02 06:37:00,
2013-06-01 23:42:00,59.4,36.2,29.99,North,357,5.8,5.8,42,0.00,CLR,SCT,0.00,WeatherDisplay:10.37,2013-06-02 06:42:00,
2013-06-01 23:47:00,59.0,36.5,29.99,North,350,4.6,4.6,43,0.00,CLR,SCT,0.00,WeatherDisplay:10.37,2013-06-02 06:47:00,
2013-06-01 23:53:00,58.8,36.9,29.99,NNW,342,4.0,4.0,44,0.00,CLR,SCT,0.00,WeatherDisplay:10.37,2013-06-02 06:53:00,
2013-06-01 23:58:00,58.6,36.8,29.99,North,349,4.6,4.6,44,0.00,CLR,SCT,0.00,WeatherDisplay:10.37,2013-06-02 06:58:00,